Погода в Костроме

Погода в Костроме : погода сейчас, прогноз погоды и архив. Всё, что Вы хотите узнать о погоде в Костроме!

Хотите узнать прогноз погоды в Костроме? Тогда Вам сюда: Погода в Костроме

Поиск расширенной информации на нашем сайте:

Другие новости

Новости СМИ2

Главная страница сайта

Новости сайта

03.07.2017

Напоминаем, что на нашем специализированном сайте Метеоцентр.Азия вы можете получить высокодетализированные автоматические прогнозы погоды по пунктам России, СНГ и мира в авиационном формате (включающие направление и скорость ветра, видимость, явления погоды, количество и форму облачности, нижнюю и верхнюю границу облачности).


Погода в Костроме - сегодня

Время (UTC), дата Ветер
(°,м/с) 
Видим.   Явления Облачность Т
(°С)
Тd
(°С)
f(%) Тe
(°С)
Pmin
(гПа)
dP
(гПа)
Po
(мм)
O2
(г/м3)
Тmin Tmax R s Состояние
почвы
12 16.04.18 300 (СЗ) 30000 м    3/0 средняя 
[Ac trans]
+17 -5.6 21 +18  1017.2  -1.4  752  286           
18 16.04.18 180 (Ю) 50000 м    10/0 средняя 
[Ac und]
+11.8 -5.5 29 +12  1016  -0.2  751  290           
00 17.04.18 тихо ()   50000 м    ясно 
+5.8 -5.1 45 +6  1016.1  0.1  750  297           
03 17.04.18 тихо ()   30000 м    3/0 средняя 
[Ac trans]
+3.4 -4.4 57 +3  1016.5  0.2  751  299  +2.9      мокрый или
старый снег
10-40% 
06 17.04.18 тихо ()   30000 м    3/0 средняя 
[Ac cast]
+11.4 -2.3 38 +11  1016.4  0.4  751  291           
09 17.04.18 310 (СЗ) 30000 м    8/0 средняя, верхняя 
[Ac cast|Ci fib]
+17 -4.1 23 +18  1016.4  0.3  751  285           
12 17.04.18 010 (С) 30000 м    10/1 600 м верхняя 
[Cu hum|Ci]
+18.5 -2.4 24 +19  1015.5  -0.8  750  283           
18 17.04.18 150 (ЮВ) 50000 м    10/0 средняя 
[Ac und]
+11.2 -1.4 41 +11  1014.8  -0.3  750  290           
21 17.04.18 150 (ЮВ) 50000 м    9/0 средняя 
[Ac trans]
+11.9 -1.4 40 +11  1014.1  -0.3  749  289           
00 18.04.18 140 (ЮВ) 50000 м    10/0 средняя 
[Ac trans]
+10.2 -1.8 43 +9  1012.8  -1.4  748  291           
03 18.04.18 140 (ЮВ) 30000 м    10/0 средняя 
[Ac As]
+9 -2 46 +7  1011.6  -1.3  747  292  +9      мокрый или
старый снег
10-40% 
09 18.04.18 120 (ЮВ) 30000 м  слаб. ливневой дождь  10/5 600 м кучево-дожд., средняя 
[Cb calv|Ac As]
+11 -0.3 46 +11  1011.3  -0.3  747  289           
12 18.04.18 100 (В) 30000 м    10/10 600 м 
+11 +0.4 48 +11  1010.8  -0.5  747  289           
18 18.04.18 060 (СВ) 50000 м  {дождь}  10/1 600 м кучево-дожд., средняя 
[Cb calv|Ac und]
+9.6 -2.3 43 +11  1010.4  0.2  746  291           
21 18.04.18 070 (В) 50000 м    8/0 средняя 
[Ac lent]
+6.7 -2.8 51 +7  1009.4  -1.2  745  293           
00 19.04.18 020 (С) 50000 м    1/0 верхняя 
[Ci fib]
+3.8 -4.7 54 +3  1008.5  -1  745  296           
03 19.04.18 360 (С) 30000 м    10/0 средняя, верхняя 
[Ac cast|Ci fib]
+2.6 -3.9 62 +1  1007.9  -0.6  744  297  +2.6        влажная 
18 19.04.18 020 (С) 3{10}  50000 м    3/0 верхняя 
[Ci fib]
+9.2 -5.4 35 +9  1009  1.7  745  291           
21 19.04.18 360 (С) 50000 м    ясно 
+5 -3 56 +5  1010.8  1.6  746  296           
00 20.04.18 310 (СЗ) 50000 м    ясно 
+4 -3.3 59 +5  1011.8  0.9  747  297           
03 20.04.18 360 (С) 30000 м    8/0 средняя 
[Ac As]
+2.5 -2.6 69 +2  1013.6  1.7  748  299  +2        влажная 
06 20.04.18 020 (С) 30000 м    10/0 средняя 
[Ac und]
+5.5 -3.4 53 +3  1014.7  1.2  749  296           
09 20.04.18 340 (С) 6{12}  30000 м    6/6 600 м 
[Cu med, cong]
+7.6 -4.3 43 +6  1014.9  0.4  750  294           
18 20.04.18 тихо ()   50000 м    8/0 средняя 
[Ac trans]
+3.2 -6.3 50 +3  1012.5  -1  748  298           
21 20.04.18 140 (ЮВ) 50000 м    3/0 средняя 
[Ac trans]
+2.7 -6.9 49 +2  1010.6  -1.9  746  298           
Время (UTC), дата Ветер
(°,м/с) 
Видим.   Явления Облачность Т
(°С)
Тd
(°С)
f(%) Тe
(°С)
Pmin
(гПа)
dP
(гПа)
Po
(мм)
O2
(г/м3)
Тmin Tmax R s Состояние
почвы

Для получения пояснительной информации подведите курсор к названию столбца.

ПОГОДА в Костроме - архив

Всё, что Вы хотите узнать о погоде в Костроме - удобно и подробно!

Выберите нужную дату (начиная с 1 января 2015* года) и нажмите кнопку "Найти".
Будут отображены архивные сводки погоды по пункту Кострома, начиная с указанной даты.


Отображать данные в формате CSV (для использования в таблицах Excel)


Внимание! Наш архив погоды предназначен исключительно для личного некоммерческого использования в познавательных целях. Если Вам необходимы официальные справки о состоянии погоды (для производственных, юридических, коммерческих и т.п. целей), обращайтесь в органы Росгидромета.

*Примечание: данная дата относится к архиву по метеостанциям СССР (Россия, СНГ, Балтия).
Архив по метеостанциям Зарубежной Европы и Азии (кроме Китая) хранится 10 дней, по другим регионам земного шара (Китай, Африка, Америка, Австралия, Океания) - 1 день.

Кострома - район местоположения метеостанции


Название, широта, долгота, высота метеостанции:
Кострома 57.7°ш. 40.8°д. 126 м над ур. моря [Российская Федерация]

Дополнительная информация

В oтличие oт бoльшинства пoгoдных сайтoв мы публикуем пoдрoбную метеoинфoрмацию в детальнoм прoфессиoнальнoм фoрмате.

Характеристики температуры и влажнoсти вoздуха измеряются на высoте 2 м в тени вдали oт зданий и деревьев.
Скoрoсть ветра измеряется на высoте 10 м (на урoвне рoста челoвека скoрoсть ветра ниже в 1.5-2 раза). Если метеoстанция нахoдится в гoрoде или в лесу, тo скoрoсть ветра занижена на 2-4 м/с пo сравнению с oткрытым местoм. Скoрoсть ветра над акватoриями крупных рек и oзёр, а также на вершинах хoлмoв на 2-5 м/с выше, чем в oбычных услoвиях.
Атмoсфернoе давление в разных тoчках местнoсти мoжет значительнo oтличаться oт давления на метеoстанции, в зависимoсти oт услoвий рельефа (при пoдъёме на 10 м давление пoнижается примернo на 1 мм рт.ст.).